map of BOG home
Great Circle Mapper logo
BOG - Airport
Location
City:  Bogotá, Colombia
Name:El Nuevo Dorado International Airport
ICAO / IATA:SKBO / BOG

Details
Type:Airport (Aerodrome, Airfield)
Use:International (customs port of entry)
Latitude:4°42'11"N (4.703056)
Longitude:74°08'18"W (-74.138332)
Elevation:8361 ft (2548 m)
Runways:2
Longest:12467 × 148 ft (3800 × 45 m), paved

Time
Time Zone:UTC-5
Local Time:

Weather
METAR:SKBO 301400Z 16008KT 9999 VCSH SCT020 15/09 A3043 RMK VCSH/E/S
TAF:SKBO 301000Z 301212 03007KT 9999 SCT020 SCT080
BECMG 3014/3016 12012KT
TEMPO 3019/3022 VCSH BKN020 PROB40 3020/3021 DZ SCT018TCU
BECMG 3023/3101 08006KT FEW020 SCT090 TX20/3018Z TN08/3111Z

Related Locations
Nearby:
Farthest:TKG: 12379 mi / 19923 km
Bandar Lampung [Branti (Radin Inten Li)], ID

Find:

   beyond  
but within

Other Information
Maps:
NOTAMs:
Links:
Sources:

  
flag of Colombia   

Airport Diagram

Airport diagram for BOG

Airport diagram (OBSOLETE) from NGA

Sectional Chart

Flight Planning
at skyvector.com

Satellite Image

Google Maps Satellite View

 

Copyright © 2004-2014 Karl L. Swartz. All rights reserved.
The Great Circle Mapper name and logo are trademarks of the Great Circle Mapper.
All other trademarks mentioned herein belong to their respective owners.
Please see credits for attibutions and further copyright information.

  Follow gcmap on Facebook Follow gcmap on Twitter

hCard Microformat

Geo Microformat